Theta_e
289 290 289 290 290 290 290 290 289 288 289 287 284 285 288 290 285 282 288 290 288 290 293 294 295 296 296 297 297 299 299 298 298 297 295 295 295 295 295 294 294 292 291 291 290 289 288 288 287 286 286 286 286 286 285 285 283 282 282 281 280 280 279 279 279 279 279 279 278 278 277 277 276 275 275 274 274 273 272 271 271 271 271 270 270 270 270
287 288 288 289 288 289 289 289 289 291 290 289 288 287 289 289 287 289 289 290 289 292 293 295 296 297 297 298 298 298 297 297 297 297 296 296 297 295 295 295 295 294 293 293 292 290 289 288 287 286 286 285 285 285 284 284 282 282 281 280 279 279 279 279 279 279 278 277 277 276 276 275 274 274 273 272 271 270 270 270 269 269 269 269 269 269 269
284 286 288 289 289 288 286 287 288 288 288 289 289 290 290 289 288 290 289 288 288 293 296 296 297 297 297 297 296 296 297 297 297 297 296 297 297 297 297 296 296 296 295 294 294 292 289 288 287 286 286 285 285 284 284 282 282 281 280 279 279 278 278 278 278 278 277 276 275 274 274 274 273 272 271 270 269 269 268 268 268 268 268 268 268 269 269
281 286 286 287 288 286 285 284 285 286 286 285 287 287 289 288 286 288 288 286 286 292 296 296 296 296 295 295 295 296 296 297 296 296 296 296 296 296 296 296 297 296 294 294 294 293 291 289 287 286 286 285 285 284 283 282 281 280 280 279 278 278 278 278 277 276 275 275 274 273 272 271 270 269 269 268 267 267 267 267 267 267 267 268 269 269 269
279 285 286 285 285 283 280 281 285 287 287 288 289 290 291 290 291 287 285 286 292 294 295 294 295 295 295 295 295 296 296 297 297 296 296 296 296 296 297 297 297 297 296 294 293 293 292 289 288 287 286 285 284 284 282 282 280 279 279 278 278 278 277 277 276 275 274 273 272 271 270 269 268 267 267 266 266 266 266 267 267 267 267 268 268 269 269
280 284 284 285 281 274 276 287 291 290 287 287 286 286 289 291 292 289 292 292 295 295 295 294 294 294 295 296 296 297 297 297 297 297 297 297 297 298 298 298 298 298 298 296 294 293 292 290 288 287 286 285 284 283 281 280 278 278 278 278 278 277 276 275 275 274 273 271 270 269 268 267 266 266 265 265 266 266 266 267 266 267 267 268 268 268 268
280 284 283 280 274 275 286 291 293 293 292 291 289 290 291 292 293 293 292 293 293 295 296 296 296 296 297 297 296 297 298 298 297 296 296 297 297 297 298 297 297 297 297 294 292 290 290 288 287 286 285 284 282 281 280 278 278 277 277 277 277 276 275 274 273 272 271 270 269 268 267 266 265 265 265 265 266 266 266 266 266 267 267 267 267 267 267
284 281 280 274 274 285 290 292 292 294 293 292 290 288 290 292 292 292 291 292 294 295 296 296 297 296 296 296 296 297 298 298 297 296 296 297 297 297 297 297 297 295 293 292 291 290 288 287 285 285 284 283 281 280 279 278 277 277 277 276 275 275 274 272 272 271 270 269 268 267 266 265 265 265 265 265 265 266 266 267 267 267 267 267 266 266 266
278 279 280 279 287 284 286 288 289 290 288 288 287 283 287 292 293 293 292 293 294 295 295 295 296 296 295 293 294 297 297 297 297 296 296 297 297 298 298 298 297 295 294 292 291 288 286 286 284 284 283 282 281 279 278 277 277 276 276 275 274 273 272 272 271 271 270 269 267 266 266 265 265 265 265 265 265 266 265 266 266 266 266 266 266 266 266
286 279 278 279 278 275 282 290 293 296 295 294 294 290 286 295 295 296 294 293 294 294 294 294 295 295 292 289 291 296 298 298 296 297 297 297 297 297 297 294 293 293 291 290 289 287 286 285 284 284 282 282 280 278 277 276 275 275 275 274 273 273 272 271 271 270 270 268 267 266 265 265 264 265 265 266 265 266 265 265 266 266 266 266 266 266 266
284 281 278 276 276 279 288 289 294 296 297 296 294 288 283 292 295 296 295 294 294 294 293 294 294 292 288 289 292 296 298 298 297 296 297 297 297 297 297 295 293 291 290 289 287 287 285 284 284 283 281 280 278 277 276 275 275 274 274 273 272 272 271 270 269 269 268 267 267 266 265 265 265 265 264 265 265 266 265 266 265 266 266 265 265 265 266
282 281 279 277 282 282 289 292 293 296 297 297 291 280 280 293 295 296 295 294 294 294 294 294 293 290 288 289 293 297 298 297 296 297 296 296 295 295 293 292 292 290 287 286 285 285 284 284 283 281 281 279 277 276 275 275 274 274 273 273 272 271 269 268 267 267 267 266 265 265 264 264 264 264 265 264 264 265 265 265 265 266 266 265 264 264 265
281 282 280 283 283 290 293 293 295 296 297 293 283 277 286 295 295 296 296 295 295 295 294 294 291 293 294 295 297 297 297 293 292 294 294 293 293 294 291 290 288 287 285 286 285 285 285 283 281 280 279 278 277 275 274 273 273 274 273 272 271 269 268 266 266 265 265 265 264 264 264 263 263 264 264 264 264 264 263 265 265 264 264 263 264 264 266
280 281 280 279 284 289 294 295 296 297 292 281 280 290 297 296 296 297 297 295 296 295 295 295 295 296 297 296 296 295 296 296 296 293 291 289 287 287 287 287 286 285 284 284 284 283 283 281 280 279 278 277 276 274 273 273 274 274 272 271 269 267 266 265 264 264 263 263 263 263 263 263 262 263 264 264 264 263 264 264 262 262 263 264 264 265 266
283 281 279 278 275 287 296 294 293 295 287 287 295 296 296 296 296 296 296 296 296 296 295 296 296 296 296 295 295 295 295 295 295 294 290 288 288 286 284 284 284 285 283 283 283 282 280 279 279 278 277 276 275 274 273 273 273 272 270 269 267 266 265 264 263 262 262 262 261 261 262 262 262 263 263 262 262 263 263 262 262 262 263 264 265 265 265
280 279 277 278 285 291 296 294 287 292 294 297 298 296 295 297 297 296 296 296 296 296 295 295 295 295 295 295 295 295 295 295 295 294 291 288 288 287 286 285 284 283 283 283 282 281 278 278 278 278 277 276 274 273 273 273 271 269 268 267 266 264 263 262 262 261 261 261 261 261 261 262 262 263 262 262 262 263 263 263 264 264 265 265 265 265 265
285 283 286 290 294 295 297 297 296 297 299 299 299 298 297 296 297 298 296 296 297 297 296 296 295 295 295 295 296 295 295 296 295 293 290 288 287 286 285 284 283 283 283 282 280 278 276 276 276 277 277 275 273 273 273 270 269 267 267 266 264 263 262 261 261 260 260 261 261 261 261 262 262 262 262 262 262 263 263 264 264 264 265 265 265 265 266
292 292 293 294 294 294 296 298 299 298 298 299 297 296 295 296 297 298 297 297 297 297 297 295 294 295 296 296 296 296 296 295 295 293 291 288 287 286 285 283 282 281 282 281 279 276 275 275 276 276 276 276 272 273 270 269 268 267 265 264 263 262 261 261 260 260 260 260 261 261 261 262 263 263 262 262 263 264 264 264 264 264 264 265 265 266 265
283 280 292 290 292 294 296 296 298 298 295 296 296 295 294 293 293 292 293 294 293 293 292 292 293 293 294 294 295 295 295 295 294 292 290 289 287 285 283 283 281 280 279 278 277 275 274 274 275 276 276 276 274 271 268 269 267 265 263 263 262 261 261 260 260 260 260 260 260 260 261 262 263 263 263 264 264 264 264 264 264 264 264 265 265 266 265
280 281 286 287 288 290 293 293 293 293 295 295 295 294 293 292 291 292 293 294 293 293 292 292 291 292 293 293 293 293 293 293 293 292 290 288 286 285 284 282 279 279 278 277 276 275 274 274 274 274 275 274 272 269 268 267 266 265 264 263 262 261 260 260 260 261 261 260 260 260 261 262 262 263 263 264 264 264 264 264 263 264 264 265 265 265 265
279 281 282 284 286 288 289 292 294 293 292 292 293 294 294 293 293 293 294 294 293 294 293 293 292 290 291 291 292 291 292 292 291 292 291 288 286 285 282 280 278 278 278 277 276 275 274 273 273 274 274 274 269 268 267 265 264 264 264 263 262 260 260 260 260 261 261 260 261 261 261 262 263 264 263 263 264 265 265 265 265 265 265 266 266 266 266
275 276 279 283 279 278 284 290 294 293 293 293 292 293 292 292 292 292 293 294 295 294 293 293 293 290 291 292 293 292 292 292 292 291 291 289 287 284 282 281 279 278 278 277 276 274 273 272 272 272 273 270 268 268 266 265 264 264 263 262 261 260 260 260 260 260 260 261 261 261 261 261 261 261 263 266 266 264 264 267 268 269 269 267 268 268 267
275 281 284 285 285 284 287 290 292 291 291 291 289 288 289 290 291 292 292 292 292 292 293 294 292 291 291 292 292 291 292 292 293 293 292 290 287 285 282 279 278 277 277 276 275 273 273 271 271 271 271 267 267 266 265 264 265 263 262 261 261 260 260 260 260 260 260 260 260 261 261 261 261 261 261 264 268 268 268 268 269 269 269 269 270 270 269
283 285 286 287 287 284 284 285 285 285 287 286 286 286 287 287 288 288 288 288 289 289 291 292 293 293 292 292 292 291 291 292 292 292 292 292 290 287 284 280 278 276 276 275 274 273 272 271 270 270 268 266 265 265 264 264 264 263 263 262 261 260 260 260 260 260 260 260 261 261 261 262 262 262 262 262 264 268 269 268 269 269 269 269 269 269 270
280 284 285 284 284 284 285 285 285 285 285 285 284 285 287 287 288 289 288 288 288 288 288 288 290 291 290 290 291 291 291 291 292 291 291 290 290 287 283 280 278 277 276 275 275 274 272 270 270 268 265 265 264 264 263 264 264 263 263 262 261 261 261 260 260 261 261 260 261 261 260 260 261 262 263 263 262 263 266 268 268 269 269 269 269 269 269
283 281 279 280 282 283 285 284 284 283 281 282 283 284 286 287 287 287 288 288 288 289 289 289 289 290 291 290 291 290 290 290 291 290 290 290 287 283 281 279 278 277 277 276 275 273 271 269 268 266 264 263 263 263 263 264 264 264 264 263 262 261 261 261 261 261 260 260 261 261 261 261 261 262 262 263 263 263 262 262 264 267 267 267 268 268 268
276 274 275 275 276 278 279 277 275 278 280 281 283 283 283 283 283 283 284 285 286 286 287 287 288 289 289 289 289 289 289 290 290 290 290 289 286 284 282 280 279 278 276 276 274 272 269 268 266 264 263 262 262 262 263 264 264 264 264 263 262 261 260 261 261 261 261 261 261 260 260 260 260 260 260 259 259 260 261 261 260 260 260 261 264 267 266
273 271 271 270 270 272 273 275 276 278 279 279 279 278 279 280 280 279 280 281 282 284 286 287 287 287 287 288 288 288 289 288 288 289 289 288 287 285 283 281 279 277 276 274 272 270 268 266 265 263 262 261 261 261 262 263 265 264 263 262 262 261 261 261 261 262 261 260 260 260 259 260 260 260 260 259 259 258 258 257 258 258 258 259 258 262 265
270 269 269 269 269 270 272 275 275 274 274 275 276 275 275 274 274 274 275 277 279 280 281 283 286 287 288 288 288 288 288 288 288 288 288 289 287 285 284 281 278 275 274 272 270 268 266 265 263 262 260 260 260 261 262 264 265 263 261 261 261 261 261 261 261 261 260 260 260 260 260 259 258 258 259 258 258 258 257 257 257 257 258 257 258 259 262
266 267 266 266 267 270 271 268 269 270 270 271 270 270 270 270 269 271 273 274 276 276 278 279 280 282 284 284 285 286 286 286 287 288 288 289 287 286 280 274 272 270 270 269 267 266 265 264 263 261 260 260 261 261 263 264 264 262 261 261 261 261 261 260 259 259 258 259 259 259 257 258 258 258 257 257 257 257 257 256 257 257 256 256 258 257 256
264 264 264 265 269 269 266 265 267 267 267 267 266 266 266 267 268 268 269 270 271 272 273 274 275 276 278 280 282 284 286 286 287 287 287 288 287 281 274 273 272 269 268 268 267 266 265 263 262 261 260 260 260 261 262 263 262 261 261 261 260 261 261 261 260 259 258 258 257 257 257 257 257 257 256 256 256 256 256 256 256 256 256 255 256 256 255
260 260 263 268 266 263 263 264 264 264 264 264 263 262 264 264 264 264 265 266 267 269 269 270 271 272 274 277 279 281 283 285 286 286 286 287 284 277 274 274 275 274 274 271 268 266 263 262 261 260 260 260 260 261 262 262 261 261 260 259 259 259 260 261 260 259 257 256 256 256 256 256 256 256 256 255 255 255 255 255 255 255 255 255 255 254 255
258 258 262 262 260 260 260 262 262 261 261 261 262 263 263 263 263 264 264 265 266 266 267 268 269 271 273 275 276 278 280 281 283 284 285 285 280 276 274 274 275 275 274 271 267 265 264 262 260 259 259 260 260 261 262 261 261 261 260 260 259 259 260 261 259 257 255 255 255 255 255 255 255 255 255 255 255 255 255 255 255 254 254 253 254 253 254
259 259 259 260 260 259 258 259 260 260 260 261 261 261 261 261 261 261 262 263 263 264 265 266 268 269 270 272 274 276 278 277 278 280 282 281 279 275 273 272 272 271 269 267 265 265 264 261 259 258 259 259 260 261 262 262 262 261 260 259 259 259 258 258 257 255 255 255 255 254 255 254 255 255 254 254 254 254 254 254 254 254 254 253 253 252 256
261 261 261 261 261 261 261 260 259 259 259 258 258 259 260 260 260 260 261 262 262 263 264 266 267 268 269 271 273 275 276 277 279 281 282 282 278 272 270 269 266 264 263 263 264 264 262 259 257 258 259 260 261 261 262 261 261 260 260 259 259 258 257 255 255 255 255 254 254 254 254 254 254 253 253 253 253 253 253 254 253 253 253 253 253 252 253
260 259 259 259 259 260 259 259 259 259 258 258 258 258 258 258 259 259 260 261 262 264 265 266 267 269 270 272 274 276 277 278 279 279 280 275 270 269 268 266 264 263 262 262 264 262 259 258 257 258 260 260 260 261 261 261 261 260 259 258 257 256 255 255 255 255 254 253 253 253 253 253 252 252 252 252 253 253 252 252 252 252 252 252 252 251 251
259 259 258 258 258 258 258 258 258 258 258 257 257 257 257 258 258 259 261 262 263 264 266 266 266 266 268 271 273 275 275 276 276 275 272 268 268 267 266 264 263 261 261 260 261 260 259 259 257 257 259 259 260 260 260 259 260 259 258 257 256 255 255 254 254 253 253 253 253 252 251 251 251 251 251 252 252 252 252 252 251 251 251 251 251 250 251
258 258 258 258 258 258 257 258 258 258 258 257 257 258 258 258 259 260 261 263 263 263 264 264 265 267 269 271 271 271 271 270 269 267 266 267 267 265 263 262 261 261 260 257 257 259 258 257 257 259 260 260 260 260 259 257 257 257 257 256 255 255 254 253 253 252 252 252 251 251 251 251 251 251 251 251 251 251 252 252 252 251 251 251 250 250 250
257 258 258 258 258 257 257 258 258 258 257 256 256 257 258 259 260 261 261 261 262 263 263 264 266 267 267 268 268 268 266 266 266 265 265 265 265 264 262 262 262 262 259 256 258 257 257 257 258 259 259 259 259 259 257 256 256 257 256 255 255 254 253 253 252 252 251 251 251 251 252 252 251 251 251 251 251 250 251 251 251 251 251 250 250 250 250
256 256 256 257 257 257 257 257 257 257 257 257 257 256 257 258 259 260 260 260 261 263 264 265 265 265 266 266 265 264 263 264 265 264 263 263 262 258 256 255 255 255 256 257 258 257 257 257 258 259 259 259 258 256 256 255 255 256 255 255 254 254 253 253 252 251 251 251 251 251 251 251 251 251 251 251 250 250 250 249 249 250 250 250 250 250 250
256 256 256 256 256 257 257 256 256 256 256 256 257 257 258 259 260 259 259 259 261 262 264 264 263 263 263 262 261 261 261 263 263 263 262 261 259 259 256 252 254 255 257 258 257 257 257 258 257 256 255 255 255 255 255 254 255 255 255 255 254 254 253 252 252 251 251 251 251 251 251 251 251 251 250 250 250 250 250 251 251 251 251 250 250 250 250
255 256 256 256 256 256 256 257 256 256 256 257 257 258 258 259 260 259 259 260 261 262 261 261 261 261 261 261 260 260 260 261 261 260 259 259 258 256 253 253 256 256 257 256 256 256 257 257 256 255 255 255 254 254 254 255 256 256 255 255 254 253 253 252 252 252 252 252 252 252 251 251 251 251 250 250 250 251 252 252 253 252 252 251 250 250 250
255 255 255 255 256 256 256 256 256 256 256 257 257 258 258 259 259 259 259 260 260 259 259 258 259 260 260 260 260 259 259 257 255 254 253 253 254 255 254 254 256 256 256 256 256 257 257 256 256 255 254 254 254 253 254 256 256 256 255 255 254 254 254 253 253 253 253 253 252 252 252 252 252 251 251 251 252 252 252 252 252 252 252 252 251 250 249
255 255 256 256 256 256 256 256 256 256 255 256 258 258 258 258 258 258 258 259 259 258 258 257 258 259 259 259 259 258 257 256 256 256 254 253 253 254 255 255 255 255 256 256 256 257 257 256 255 254 253 253 253 254 255 256 256 255 255 254 254 254 254 253 253 253 253 252 252 252 252 251 252 252 252 252 252 252 251 251 251 251 251 251 251 250 250
255 255 255 256 256 255 255 256 256 255 256 257 257 258 258 257 257 257 258 258 258 258 258 258 258 259 259 259 258 258 257 257 257 257 254 252 251 251 254 255 255 256 256 256 257 257 256 255 254 253 253 253 254 254 256 256 255 255 255 254 254 253 253 252 252 252 252 252 252 252 252 252 252 252 252 252 252 251 250 250 250 250 251 250 250 250 250
255 256 256 256 255 255 256 256 257 257 257 257 257 257 257 257 256 257 258 258 257 258 258 258 258 258 257 257 256 255 255 255 254 254 254 254 253 252 254 255 255 256 256 256 256 255 254 253 253 253 253 254 254 255 255 255 255 255 254 254 253 253 253 253 252 252 252 251 251 251 251 251 251 252 252 251 251 250 249 248 249 249 250 249 249 249 249
255 255 256 255 255 256 256 257 257 257 256 256 255 255 257 257 256 257 257 258 257 257 257 257 257 258 258 258 257 256 255 254 253 254 254 254 254 254 255 255 255 255 255 255 254 253 253 252 253 253 254 254 254 256 255 255 255 254 254 253 253 253 253 252 252 251 251 251 250 250 249 249 250 249 247 248 248 248 248 247 248 249 249 248 248 247 247
255 255 255 255 255 256 256 256 256 255 255 255 255 256 256 257 256 257 257 257 257 256 256 256 256 256 256 256 257 257 257 255 252 252 254 254 255 255 255 255 255 255 254 253 252 252 253 253 253 253 254 254 255 255 255 255 254 254 253 253 253 253 252 252 251 251 251 249 249 249 249 249 249 248 248 248 249 248 248 248 248 248 249 248 248 249 247
255 255 255 256 256 256 255 255 255 255 255 256 256 256 257 256 257 256 256 256 256 256 256 255 255 255 255 255 255 255 255 256 254 252 254 255 255 255 255 254 254 253 253 252 252 252 253 253 253 253 253 254 255 255 255 254 253 253 254 254 253 253 253 252 251 251 250 249 249 249 249 248 248 248 247 248 248 247 247 246 247 247 248 248 248 247 247
255 255 255 255 255 254 254 254 254 255 255 256 256 256 257 257 255 255 256 256 256 256 256 255 255 255 255 254 254 254 255 255 255 255 255 254 254 254 254 254 254 253 253 252 252 252 252 252 253 253 254 254 254 254 253 254 254 254 253 253 252 252 251 250 249 249 249 249 249 249 249 248 248 247 247 247 247 247 247 247 247 247 246 245 246 247 247
255 254 254 255 255 255 255 255 255 255 256 256 256 257 257 256 256 256 257 257 257 256 256 255 255 255 254 254 254 254 255 255 255 255 255 254 254 254 254 254 253 253 253 252 252 252 253 253 253 253 253 253 253 253 253 253 253 252 252 252 250 249 249 248 249 249 249 249 248 248 248 248 247 245 247 247 246 246 246 246 246 246 245 246 247 247 247
255 255 255 255 255 255 255 256 256 256 256 256 256 256 256 256 256 256 256 256 256 255 255 254 253 254 255 254 254 254 255 255 255 255 255 254 254 254 253 253 253 253 253 253 253 253 253 253 252 252 252 253 253 252 251 251 252 251 251 250 250 250 250 250 249 248 248 248 248 248 248 248 247 246 247 247 246 246 246 246 246 246 247 247 247 246 246
Wind_Speed
14 14 18 22 24 25 18 13 15 15 16 13 19 25 27 11 14 20 20 22 19 17 17 22 26 25 26 27 29 24 21 16 11 3 7 11 12 12 12 14 14 13 13 14 13 11 12 12 13 13 12 12 12 12 13 14 13 14 13 14 14 14 14 13 13 13 12 11 11 10 10 10 9 9 8 7 7 6 6 5 4 5 5 5 7 8 8
14 15 18 21 25 23 22 21 18 17 16 22 27 28 11 15 26 29 22 21 26 19 22 27 29 29 29 28 25 23 21 16 11 5 9 17 16 13 14 15 15 14 16 15 14 15 13 13 14 13 13 13 14 15 15 14 13 12 13 14 14 14 14 13 13 13 12 11 11 10 10 10 9 9 8 7 6 5 5 5 4 4 5 6 7 8 7
18 21 24 24 24 21 24 22 18 17 19 24 23 15 14 19 23 20 27 25 22 15 22 24 32 30 27 26 28 25 21 22 22 15 15 20 22 17 14 12 13 14 15 16 17 16 15 14 14 13 12 12 12 13 13 14 14 13 13 13 13 13 13 12 13 12 11 11 11 11 10 9 8 8 7 6 6 5 5 5 5 5 5 7 8 7 7
15 17 22 24 16 22 23 21 19 22 30 32 22 18 18 18 19 22 18 16 17 19 25 29 29 27 27 32 29 23 22 26 21 15 16 18 17 15 13 11 11 10 13 15 16 17 16 17 14 10 11 13 14 14 13 13 13 13 12 12 12 12 12 12 12 12 11 11 10 10 9 9 8 7 7 6 6 5 5 5 5 5 7 8 7 7 6
15 17 20 16 16 16 17 19 29 37 33 24 22 26 28 26 23 21 17 14 16 20 22 20 22 26 28 28 20 19 23 23 17 15 17 15 13 12 11 13 13 13 12 12 15 16 15 13 13 13 12 11 13 13 13 12 9 10 10 11 11 11 11 11 11 10 10 10 9 9 9 9 8 7 7 6 6 6 6 5 5 6 7 7 7 6 5
11 17 20 15 12 16 16 23 31 24 25 27 30 30 31 31 24 20 20 21 18 20 22 24 25 29 29 21 14 15 18 18 16 15 15 15 15 15 15 15 15 14 13 9 10 13 14 14 13 10 10 9 8 8 8 8 10 9 10 9 9 10 9 9 10 10 9 9 10 9 9 9 8 8 7 6 6 5 5 5 6 7 7 7 6 6 5
9 11 13 11 17 16 20 18 7 14 24 28 31 31 28 28 28 28 27 26 27 30 29 26 28 29 28 20 16 19 22 20 13 15 18 19 18 17 17 16 14 13 10 5 5 6 7 9 9 9 8 8 8 8 9 10 8 9 6 7 6 8 8 8 7 8 9 9 10 10 9 9 8 8 7 7 7 6 5 6 6 6 6 6 6 5 4
7 7 10 12 16 3 4 5 12 17 21 21 19 24 27 31 30 28 26 26 28 29 29 29 29 28 25 16 12 20 22 22 13 15 17 19 20 18 15 14 13 6 6 7 8 8 7 10 8 8 9 9 10 9 9 10 8 8 8 7 7 6 7 7 7 8 9 10 10 10 10 9 8 8 7 7 7 6 5 5 5 5 4 5 5 5 5
14 9 13 23 4 5 5 5 11 16 16 15 18 22 27 26 24 26 26 26 28 30 30 30 29 26 20 13 15 21 23 22 15 16 17 19 20 17 14 11 9 4 5 6 7 9 10 10 9 9 9 11 13 11 11 9 11 9 10 10 9 9 8 9 8 9 9 10 10 10 9 9 8 8 8 7 6 5 5 5 5 5 5 5 4 4 4
13 12 11 8 12 16 12 16 18 16 17 24 26 22 27 11 10 12 22 25 28 31 29 27 27 23 15 12 16 21 25 21 11 15 15 16 16 15 12 4 4 4 4 5 8 11 11 10 10 9 12 15 16 13 13 12 15 11 13 10 11 9 9 8 8 8 7 8 9 9 8 8 8 6 6 5 5 5 6 6 6 5 4 4 4 4 4
12 15 11 12 14 15 10 21 22 25 24 22 23 21 19 6 9 13 24 26 25 25 22 23 24 15 12 14 16 19 21 20 8 11 13 14 14 13 10 8 8 6 6 7 9 10 11 13 10 13 15 16 17 16 15 12 11 11 12 13 10 10 10 10 9 8 8 7 7 8 7 7 6 6 6 5 5 5 4 4 4 4 5 4 4 3 3
13 16 13 12 6 12 12 16 18 20 23 24 15 21 7 11 21 27 29 29 27 24 23 22 19 13 16 16 18 19 20 14 8 10 12 12 10 9 6 4 5 6 8 9 7 10 14 14 13 16 16 17 19 17 11 11 14 17 19 16 14 12 10 10 9 9 9 9 8 8 8 7 6 5 4 4 4 5 4 4 4 3 4 4 3 3 3
19 24 15 9 10 5 7 16 16 21 22 20 21 23 2 16 22 24 25 26 26 23 21 16 16 16 20 20 18 16 12 5 6 7 6 4 4 8 8 7 7 7 8 10 12 11 8 11 12 13 17 17 16 15 14 11 17 12 13 15 15 11 10 10 10 10 8 8 9 8 7 7 6 5 4 5 5 5 4 3 3 2 3 3 3 3 3
16 15 18 18 16 11 10 12 19 16 10 14 20 16 21 24 23 20 20 23 21 20 21 19 19 19 20 18 14 14 15 15 14 8 6 5 2 0 1 4 6 5 5 4 3 4 5 10 13 16 18 19 17 13 12 12 11 11 12 13 11 12 11 10 10 10 10 9 8 8 8 7 7 5 5 4 4 4 4 3 3 5 5 3 1 1 2
14 9 13 10 15 7 21 23 19 15 15 17 16 21 18 20 20 19 17 17 18 19 21 21 21 21 19 18 17 16 15 13 12 12 9 11 11 10 7 6 8 9 8 10 10 9 7 9 11 15 18 19 19 18 16 12 12 13 11 11 12 12 12 12 11 11 11 11 9 7 7 7 7 7 6 5 4 4 4 3 5 5 4 2 0 1 2
11 15 14 12 12 16 19 21 17 15 24 18 22 19 19 17 16 15 15 16 17 17 18 18 18 17 16 17 17 16 12 11 11 9 8 9 9 9 9 7 10 9 10 9 8 7 9 11 14 16 19 18 17 19 16 11 10 12 12 11 12 12 11 12 12 10 11 12 11 9 9 8 7 7 6 6 5 5 5 5 5 4 2 1 0 1 2
9 6 4 8 10 9 9 20 21 18 19 17 20 21 20 18 16 14 14 14 15 15 16 17 17 18 17 18 16 15 14 13 11 10 12 13 14 14 13 10 9 9 14 13 11 8 9 12 12 16 14 18 21 18 11 14 13 14 13 14 13 13 12 11 10 10 9 9 10 9 9 9 8 7 7 6 6 5 5 5 4 2 2 1 0 1 3
10 14 11 8 10 12 13 11 11 17 17 15 13 14 15 14 18 16 16 16 17 18 16 15 13 14 15 17 16 14 12 11 8 5 6 9 10 9 7 5 10 11 8 8 11 12 9 10 15 16 16 17 24 21 15 12 12 16 19 22 18 13 11 11 11 11 12 10 9 9 9 7 7 7 7 7 6 6 5 5 4 3 1 1 0 1 3
12 7 10 15 12 14 15 16 15 13 10 9 6 10 9 9 11 14 15 14 14 15 15 13 14 15 17 18 17 16 13 13 11 7 9 10 11 11 12 14 9 8 9 10 12 13 15 13 16 17 18 13 13 15 17 13 13 21 22 21 14 13 12 12 12 12 12 10 9 8 8 7 6 5 6 5 5 6 5 5 4 3 3 2 0 2 3
14 12 14 18 24 24 19 13 15 17 14 12 9 5 5 6 6 8 11 12 14 12 13 12 14 16 15 16 16 15 14 13 11 9 6 7 5 5 3 1 7 6 10 13 14 15 16 15 16 18 16 15 14 18 12 16 18 23 22 15 14 13 14 11 11 11 10 13 12 8 7 8 7 6 5 5 6 6 6 6 5 4 3 2 1 2 3
15 23 22 19 22 21 19 13 4 5 6 9 9 10 11 10 12 13 12 8 9 10 13 15 12 12 13 13 14 15 13 13 11 12 6 4 7 7 7 9 12 15 16 16 16 17 18 14 16 17 17 15 16 19 19 19 22 22 15 14 13 13 12 10 10 9 8 10 9 9 8 7 6 6 6 6 6 4 3 3 4 5 3 2 1 2 2
17 13 15 17 15 16 19 16 10 13 12 10 11 10 11 11 11 11 13 14 14 13 13 13 13 13 14 14 14 15 15 14 15 12 10 7 8 10 12 11 14 16 14 16 16 18 15 14 17 18 17 15 17 18 22 21 23 25 22 12 12 11 10 9 9 9 8 8 7 7 8 7 6 3 2 6 5 5 6 10 9 5 3 2 1 1 2
17 15 14 15 19 20 19 15 11 12 10 9 11 14 16 16 15 14 14 15 15 15 15 13 11 11 13 14 14 13 13 16 16 16 14 12 9 11 11 11 13 15 16 16 14 14 14 16 18 18 15 17 21 19 20 18 19 24 22 11 10 10 10 9 10 10 9 8 7 7 7 7 6 6 4 5 10 10 8 9 6 4 4 2 1 2 1
25 22 22 17 13 14 12 11 13 14 14 17 18 16 15 15 16 15 14 14 16 17 17 16 13 14 15 15 13 15 16 17 16 16 15 16 13 13 12 14 16 17 15 14 16 20 18 18 18 17 16 20 20 18 11 11 19 21 15 12 12 10 10 10 12 11 9 9 9 8 7 6 6 7 6 5 5 10 11 7 7 6 5 3 4 4 4
19 16 18 17 20 22 18 16 16 14 10 12 12 15 17 18 18 17 17 17 15 16 15 17 17 14 12 12 13 14 15 18 17 18 16 17 16 13 12 14 15 16 17 19 19 19 16 17 17 17 20 20 19 17 12 12 12 15 18 18 12 10 9 10 10 11 10 9 8 8 8 7 6 6 7 7 7 7 7 7 5 7 6 6 6 5 6
18 14 14 13 14 15 13 16 12 13 17 17 17 15 17 16 18 19 19 17 16 16 17 18 20 21 19 17 16 15 17 17 17 16 14 14 11 8 10 14 17 16 17 18 18 15 16 21 21 21 23 21 21 16 16 15 14 15 17 22 20 11 11 12 11 10 9 8 9 8 7 7 6 6 5 5 6 6 5 3 4 5 3 5 7 7 8
12 12 16 13 11 14 12 11 12 17 18 17 16 16 16 18 18 17 17 19 19 18 19 20 21 20 19 18 18 17 18 20 18 17 15 15 13 14 14 14 16 18 18 16 14 15 20 20 20 21 24 23 21 21 21 18 20 25 26 23 14 18 27 17 8 10 8 8 7 7 7 7 6 5 6 4 5 4 4 6 5 3 1 1 4 7 7
9 10 8 5 10 13 15 18 18 16 16 17 18 18 16 15 17 19 21 21 21 19 18 17 18 19 19 17 16 17 15 17 18 18 17 16 14 12 12 14 16 16 15 14 14 15 17 18 21 24 24 18 20 22 23 26 23 23 20 18 12 11 9 11 7 7 7 7 7 7 8 7 6 6 6 5 4 4 4 4 4 3 2 0 1 3 7
12 12 10 7 11 14 15 14 14 15 17 15 14 13 14 17 17 17 19 18 19 20 19 19 18 18 17 16 14 15 14 15 17 18 17 15 13 12 12 13 10 8 9 12 12 14 18 19 21 23 21 14 18 20 15 20 17 19 21 16 11 10 9 8 6 6 6 6 6 8 8 7 6 5 4 4 3 3 2 3 2 1 0 0 1 1 4
14 13 13 13 15 12 10 13 14 16 15 15 15 16 15 15 15 15 17 18 16 19 19 21 21 20 18 19 19 18 19 19 19 17 16 15 13 11 7 5 6 5 6 8 13 17 20 22 23 25 21 13 17 16 20 19 17 19 16 14 14 13 12 12 11 9 8 7 8 11 8 7 6 5 5 4 4 3 3 3 2 2 1 0 1 1 2
19 16 15 15 10 8 12 14 14 15 15 14 16 17 19 14 13 15 18 17 17 18 19 19 20 24 23 22 20 19 19 18 18 18 18 17 15 8 8 11 12 13 16 19 19 21 23 23 23 22 11 12 15 21 21 19 17 15 11 11 13 19 21 20 13 9 7 8 7 7 6 6 6 5 4 5 4 3 3 2 2 1 1 0 1 2 2
18 19 12 3 6 12 14 9 9 12 15 15 16 16 14 12 16 19 19 17 17 19 21 23 23 22 22 21 22 22 21 20 19 19 17 16 12 7 10 14 17 19 20 20 19 20 21 23 26 21 14 19 22 24 20 17 12 13 11 10 11 11 14 20 11 12 8 7 6 7 5 6 6 5 6 5 5 4 4 4 3 2 2 1 1 1 1
15 17 20 19 20 19 17 13 8 14 16 17 17 15 15 14 13 15 17 17 19 20 19 20 19 20 20 20 21 23 22 22 21 20 19 17 10 8 11 12 15 16 14 12 16 19 22 29 24 16 17 20 22 21 19 19 16 18 11 10 9 9 12 14 13 12 8 7 6 6 6 5 6 5 5 4 4 4 4 3 3 2 2 2 2 1 1
11 11 14 16 13 15 18 23 19 17 19 18 18 17 18 16 14 16 17 17 18 19 18 19 21 23 22 21 20 22 20 20 20 19 18 14 12 10 10 9 6 4 5 8 11 8 10 17 17 16 18 20 21 20 19 20 18 16 10 10 10 10 10 10 12 9 8 7 6 9 6 4 5 5 4 4 5 4 4 3 3 3 3 2 2 1 2
13 16 17 18 17 18 18 19 20 21 19 21 22 17 14 14 15 17 18 18 19 19 19 19 19 22 23 22 21 20 18 20 19 20 18 15 10 7 6 7 7 9 11 13 13 10 18 19 15 18 21 21 21 19 19 17 11 13 9 12 15 13 10 8 9 9 9 8 7 7 6 5 4 4 4 5 4 3 3 3 2 2 3 3 2 1 1
15 17 15 15 15 16 18 18 19 21 21 20 21 22 22 20 18 20 21 21 18 18 18 18 18 18 19 19 19 19 18 18 18 18 18 10 3 6 9 11 13 13 14 12 11 14 16 16 22 23 18 17 17 19 19 16 13 14 17 20 19 15 9 10 8 13 9 7 6 5 5 6 6 5 4 4 4 3 4 2 2 2 2 2 1 1 0
13 16 17 16 16 16 18 17 17 18 19 20 21 22 24 24 21 21 21 20 18 16 16 17 19 21 21 21 19 19 18 17 15 13 6 4 7 9 11 12 12 16 15 15 12 15 17 17 22 23 18 16 17 17 17 23 15 17 20 14 12 12 13 11 10 8 7 6 7 7 7 5 5 5 3 4 4 3 3 3 3 2 2 2 1 1 0
16 15 18 17 17 17 17 16 17 18 21 28 25 21 23 25 23 19 18 17 18 19 19 19 18 19 19 19 19 19 17 12 8 1 5 7 8 10 9 12 11 12 13 16 16 16 13 20 27 19 14 15 17 18 19 23 24 17 11 13 16 14 17 13 10 7 8 7 5 6 6 6 6 5 4 3 3 3 3 3 3 3 2 2 1 1 1
18 15 14 15 15 16 17 16 14 15 17 24 27 25 21 22 24 21 20 19 17 17 19 19 17 18 19 17 15 13 10 7 1 5 6 7 6 10 6 4 3 4 11 16 17 15 19 23 19 16 15 16 18 17 17 21 21 12 11 12 15 11 13 9 10 9 8 6 6 6 6 6 5 6 5 4 3 3 2 2 3 2 3 2 2 1 1
17 16 17 16 16 16 16 17 16 16 16 16 20 24 21 20 19 18 20 19 18 17 17 17 15 15 14 14 13 11 7 3 2 7 10 10 13 13 11 11 11 14 17 17 13 13 21 25 19 16 17 17 17 15 14 19 19 12 9 9 9 9 9 10 9 8 7 6 8 8 5 5 5 4 4 4 4 3 3 2 2 2 2 2 2 1 1
17 17 17 16 18 17 16 17 18 17 16 18 18 18 18 18 19 19 19 19 18 17 14 11 12 12 11 11 7 4 4 1 4 10 12 13 11 9 10 10 8 10 13 12 13 16 20 17 16 10 6 8 8 16 12 17 15 8 9 9 8 8 9 7 6 7 6 7 5 6 6 5 5 5 3 4 3 3 3 2 3 2 2 2 1 1 1
17 17 19 19 18 17 17 17 18 18 17 15 17 18 18 17 17 18 19 18 17 12 9 8 9 9 8 5 3 4 5 6 9 10 10 7 5 11 14 8 9 9 13 15 17 17 15 16 17 14 10 9 8 17 19 16 9 8 9 9 8 8 7 7 6 6 5 5 6 6 5 4 5 4 4 3 3 3 3 3 2 2 2 2 2 1 1
16 19 19 17 16 17 17 18 18 19 19 17 15 15 16 16 15 15 15 15 13 9 8 8 8 8 7 4 3 5 6 8 11 12 12 13 14 9 8 11 9 11 18 15 14 11 12 13 10 6 15 15 12 19 16 9 7 8 7 8 8 7 6 7 7 7 6 6 5 5 5 4 4 5 5 4 3 3 3 2 2 2 2 2 2 1 0
18 17 17 17 17 17 17 17 18 17 17 16 15 16 16 14 13 14 14 12 10 8 8 8 8 7 6 5 5 5 5 5 5 6 10 9 10 11 8 7 9 13 17 13 13 13 14 12 8 13 15 17 22 19 9 7 7 7 8 7 7 7 8 7 6 6 6 5 5 5 4 3 4 4 4 4 4 3 2 2 2 2 2 2 2 1 0
18 16 16 16 18 17 15 15 16 17 15 15 15 14 13 12 13 12 11 10 9 8 7 7 6 6 6 7 7 7 6 6 5 4 7 8 9 5 5 9 10 12 11 13 11 13 11 8 14 18 16 21 19 17 9 7 8 7 7 7 7 7 7 6 6 6 6 5 5 4 3 3 2 3 2 3 4 3 3 3 3 2 2 2 1 1 1
18 16 15 17 17 16 15 16 16 15 15 14 14 12 10 12 12 11 10 10 8 7 7 7 8 8 8 8 8 9 10 9 9 9 7 6 5 8 6 9 9 9 11 13 10 8 8 16 20 17 19 20 18 11 7 8 8 7 7 7 6 7 6 6 6 5 5 5 4 3 3 3 2 2 2 2 2 2 2 3 2 1 1 1 1 1 1
16 16 16 16 17 17 17 15 14 15 14 12 11 10 10 11 11 9 9 10 10 9 9 9 9 9 9 8 6 5 6 7 9 10 9 9 11 12 12 14 15 15 11 7 7 8 10 12 13 17 18 16 14 7 7 7 7 7 7 6 6 5 5 5 6 5 5 4 3 4 4 3 2 2 3 3 2 2 2 2 2 2 2 2 1 2 2
17 17 17 19 21 19 16 14 12 11 11 10 10 10 9 9 9 9 9 9 9 8 7 7 7 8 10 10 9 8 5 5 10 8 7 10 10 10 10 9 11 16 18 14 13 11 15 16 16 18 16 15 11 7 7 7 7 6 6 6 6 6 6 6 5 4 5 5 5 3 3 2 2 2 2 1 1 2 2 2 2 2 2 2 2 2 2
17 19 18 17 14 14 14 12 10 10 9 9 10 8 8 9 8 8 8 8 9 7 7 7 9 9 8 9 8 7 8 7 7 8 6 9 10 10 11 14 18 15 10 9 10 8 10 11 15 16 15 12 7 7 7 7 6 6 5 5 5 5 5 5 4 4 4 4 3 3 3 3 2 2 2 2 1 1 2 1 1 1 1 1 1 2 1
14 12 11 9 10 10 10 9 9 8 9 8 8 8 7 7 6 6 6 7 6 6 6 6 7 7 8 8 8 7 8 10 12 12 10 10 10 11 10 9 9 12 12 9 10 10 9 13 13 11 9 7 6 6 6 6 6 6 6 5 6 5 5 5 6 6 5 4 4 2 2 2 2 2 1 1 2 2 2 1 1 2 2 1 2 2 1
11 10 9 9 10 9 12 10 9 10 8 8 8 8 7 6 5 6 6 7 6 6 6 6 7 8 8 8 8 9 10 11 12 12 10 10 10 11 11 9 10 9 9 9 8 8 6 5 5 6 8 7 6 6 5 6 6 6 6 5 6 5 6 4 3 3 2 2 2 2 2 2 2 2 2 1 2 1 2 2 2 2 2 2 2 1 1
11 10 9 9 9 10 9 7 8 8 7 7 7 7 7 6 6 6 6 9 7 7 7 7 7 8 8 8 9 9 9 10 10 11 10 10 10 9 10 12 10 9 9 8 8 8 7 7 7 9 9 7 6 7 7 8 7 6 6 5 5 5 3 3 3 3 2 2 2 2 2 2 2 2 1 1 1 2 1 2 2 1 1 1 1 1 1
Wind_Direction
261 263 269 269 270 268 263 218 229 221 215 216 222 228 237 230 239 254 252 258 262 261 260 265 268 277 277 277 278 279 283 281 269 175 208 225 229 224 219 224 221 215 212 211 201 189 195 185 187 190 186 186 185 186 184 180 174 171 162 160 164 161 161 160 158 154 147 149 149 147 151 153 158 162 162 162 163 167 174 186 199 205 215 226 235 241 241
269 268 262 262 264 269 271 270 268 264 243 236 234 242 228 214 243 248 257 261 261 264 266 268 274 274 273 276 280 283 281 277 261 223 267 272 262 235 229 234 232 223 222 220 212 205 190 181 188 186 185 186 187 184 182 177 171 163 155 166 161 160 161 157 150 147 144 140 142 144 147 154 158 158 159 157 160 169 176 189 195 202 213 227 233 238 241
255 251 253 255 257 261 266 268 273 285 286 268 256 264 251 241 247 253 251 255 266 268 265 266 267 265 271 278 273 275 281 279 275 280 277 273 274 269 253 242 237 232 229 226 226 219 202 185 190 185 182 181 180 180 179 175 167 162 159 160 159 157 156 149 142 139 138 142 142 148 151 149 151 152 153 154 157 166 175 188 195 203 217 227 229 232 234
246 239 244 242 248 257 263 270 275 266 256 257 263 258 249 243 245 249 255 253 250 252 256 257 259 269 270 266 270 275 275 272 279 283 270 265 269 266 263 259 256 241 227 225 226 224 214 204 189 176 175 179 179 183 175 169 163 156 155 154 150 152 146 137 138 138 141 140 142 145 144 148 146 147 145 149 157 167 178 188 197 204 220 224 229 231 233
237 236 242 240 249 262 260 253 246 242 246 257 264 260 259 255 255 259 254 243 232 242 252 264 269 263 261 261 264 265 266 271 274 271 267 266 261 263 264 262 260 260 252 230 225 225 221 206 195 189 173 165 178 178 170 161 134 144 145 145 146 144 137 140 140 141 139 139 137 140 144 142 140 143 145 153 163 174 186 188 195 210 218 224 226 228 232
245 235 244 244 242 228 226 229 234 236 245 244 245 248 249 250 244 243 241 257 267 266 258 255 258 261 259 258 254 256 265 275 278 274 269 268 270 272 269 267 267 267 264 247 223 221 214 207 196 170 164 160 157 142 127 117 135 139 139 143 136 140 137 139 140 137 135 133 136 138 138 138 142 145 152 164 170 177 178 188 202 215 219 222 227 228 232
229 229 245 241 228 229 232 242 230 233 236 240 243 248 252 256 255 253 256 257 257 256 258 257 257 258 262 269 274 275 271 268 266 271 276 276 273 272 273 272 267 262 260 222 204 196 193 169 139 139 154 144 129 124 131 135 135 134 133 132 129 136 132 132 129 132 132 135 135 139 139 142 145 151 157 164 173 179 181 192 202 210 215 218 225 221 235
251 232 210 239 238 234 309 194 222 225 235 240 254 260 253 250 249 253 251 250 249 252 257 258 256 258 264 271 274 269 270 268 262 260 265 270 272 271 266 266 268 240 186 195 192 189 152 137 139 147 154 137 131 134 125 133 136 137 132 128 128 126 126 131 135 138 137 138 135 139 142 145 148 155 162 168 171 178 182 194 202 212 223 222 224 224 231
236 209 209 231 259 287 155 167 216 216 219 220 220 243 244 233 237 240 249 250 251 252 252 254 259 263 269 276 272 265 262 261 253 249 254 258 263 265 263 258 249 191 188 180 173 144 141 146 145 156 146 135 128 129 136 138 133 140 145 147 150 145 141 142 146 146 146 139 137 141 143 144 149 156 160 167 170 175 179 196 202 210 213 226 226 224 233
213 233 237 233 226 235 207 211 226 229 220 227 236 238 255 211 229 226 243 243 245 249 251 255 258 260 269 259 258 261 263 260 239 246 245 250 253 257 260 204 182 169 153 143 148 148 147 158 160 151 141 143 137 136 146 145 147 155 155 158 149 144 139 136 133 135 133 130 132 134 138 142 147 150 153 162 169 181 180 194 200 201 217 230 230 229 236
212 232 232 227 229 233 174 221 221 231 237 233 241 250 252 138 230 235 246 246 244 245 248 251 256 259 250 245 249 254 259 264 236 237 244 246 244 245 241 216 210 182 165 155 149 148 144 163 168 145 149 155 157 157 149 154 154 152 157 138 143 141 135 128 124 117 111 111 116 124 127 133 139 146 156 168 171 176 191 196 199 206 218 231 231 242 245
222 238 234 233 184 248 193 214 220 227 236 241 243 250 245 150 215 228 237 243 248 250 245 245 251 250 255 247 248 247 251 265 259 247 248 241 233 229 211 196 188 158 135 123 149 162 181 178 151 160 158 156 163 160 161 156 158 163 155 144 118 103 113 115 115 116 123 123 123 127 132 129 132 136 147 164 176 186 199 198 200 209 213 230 239 255 259
223 223 243 254 244 224 154 218 218 223 230 235 236 241 209 215 217 223 231 240 242 245 250 249 255 240 245 251 255 261 270 275 265 246 249 260 237 222 207 201 149 153 161 174 182 187 161 143 152 149 159 160 168 169 162 162 179 164 137 124 126 121 119 118 120 120 119 121 122 122 127 131 133 145 161 172 176 191 201 212 195 220 225 240 238 248 258
222 224 234 236 247 215 206 226 227 225 233 232 236 240 234 242 239 238 236 243 245 250 251 253 254 259 259 261 259 257 257 255 255 240 219 224 248 52 73 134 153 136 146 149 126 124 140 133 149 157 162 172 167 156 164 182 158 128 134 135 127 126 126 123 121 120 122 121 119 122 126 130 136 157 171 167 177 186 203 190 194 224 229 220 230 270 283
228 227 235 230 233 144 199 226 229 211 228 234 239 249 244 245 250 248 248 247 251 247 255 252 257 262 263 262 258 252 250 251 248 237 202 210 209 200 177 182 190 166 168 182 183 170 152 151 149 164 168 175 172 167 176 159 135 140 133 131 131 130 129 129 130 129 128 128 128 128 135 142 150 160 158 166 188 196 196 192 206 221 213 199 236 307 300
216 216 216 230 213 221 201 207 226 198 219 230 235 243 254 250 254 253 253 249 253 256 258 264 265 262 259 256 256 257 253 246 242 237 210 212 213 213 211 195 173 178 185 168 172 155 155 163 167 168 174 177 172 172 170 135 135 123 132 134 132 131 132 133 132 133 135 136 135 138 143 148 158 159 165 172 187 191 194 205 202 207 184 154 357 299 300
245 265 309 310 341 313 227 225 236 240 241 241 247 250 253 260 261 266 270 272 271 268 270 265 263 264 259 259 257 257 252 247 236 221 208 205 205 204 192 185 176 183 190 188 177 162 160 167 168 178 178 175 174 176 150 141 147 146 143 141 136 135 136 135 130 128 129 129 135 136 144 152 156 161 165 174 184 187 191 208 200 194 170 137 29 296 300
313 301 275 307 327 319 314 285 278 270 276 295 327 320 306 303 300 304 303 306 304 306 308 310 300 289 281 274 272 268 266 263 261 227 211 207 208 196 184 181 186 194 187 179 180 182 172 177 177 183 183 176 178 174 135 148 149 139 135 133 134 132 128 129 131 131 127 126 128 137 148 158 163 162 163 178 182 177 189 194 192 185 163 146 165 301 301
325 284 24 352 334 323 321 316 310 311 322 307 328 342 339 338 344 335 332 331 332 329 338 337 327 319 323 324 320 312 305 299 289 257 232 227 207 195 202 207 170 175 180 184 193 190 189 175 178 183 187 184 176 143 160 146 148 137 138 127 131 134 134 128 134 138 135 139 139 144 156 156 162 158 167 177 174 177 187 185 185 176 158 142 81 290 299
283 296 324 314 310 296 288 292 304 306 324 329 334 294 279 299 308 310 312 328 330 343 327 330 321 318 319 315 310 308 310 312 310 303 282 266 256 238 242 123 169 182 191 200 200 194 198 185 178 187 188 183 168 148 125 146 128 138 143 147 142 143 136 134 137 141 137 137 138 145 156 159 159 161 173 178 177 186 186 182 181 172 145 140 216 279 293
297 294 284 281 283 285 291 298 328 10 352 324 313 309 309 319 316 314 313 314 302 309 304 307 303 301 296 293 300 301 303 300 294 290 284 236 227 216 199 194 185 197 203 204 203 197 202 177 173 185 188 180 156 155 153 153 153 145 149 133 127 129 132 129 132 134 128 143 148 144 148 155 160 163 169 175 181 176 179 185 181 154 142 162 210 250 292
278 268 296 311 306 295 296 292 318 317 321 316 307 313 312 314 311 305 302 299 297 289 284 284 284 278 276 278 282 285 284 282 284 286 278 248 228 218 212 202 200 210 208 203 201 202 200 178 182 187 186 171 154 145 146 151 153 146 135 134 127 134 135 130 129 127 130 138 132 137 144 147 145 136 204 193 180 173 183 197 194 193 170 172 203 266 266
276 286 271 267 272 273 275 298 320 319 316 319 320 315 307 305 298 292 290 293 293 291 287 279 276 275 273 274 275 275 276 275 275 275 276 268 240 226 212 203 210 211 211 208 205 202 195 183 186 186 178 155 144 144 153 154 163 149 135 134 130 135 139 136 140 133 135 132 139 141 145 144 147 147 158 199 209 201 187 187 186 188 148 131 16 13 26
271 271 276 288 288 291 305 310 306 305 306 309 309 309 306 300 300 304 303 299 297 295 293 287 277 273 275 275 271 271 269 270 271 273 271 264 247 233 213 205 209 207 209 203 202 205 196 185 183 179 171 162 162 148 153 160 165 151 147 139 144 146 138 134 138 137 134 138 140 141 140 145 150 152 159 158 191 211 205 198 188 164 140 88 57 68 52
284 299 301 307 304 303 308 312 312 313 339 348 328 319 317 316 310 309 303 300 293 290 290 294 295 293 288 283 280 277 277 277 276 272 269 265 254 232 215 210 211 206 207 206 208 207 189 180 177 175 162 166 157 157 159 161 163 153 148 126 125 134 137 132 135 136 138 140 144 143 143 145 150 157 160 164 165 171 181 181 167 145 98 72 65 71 55
294 329 347 341 311 306 329 329 335 0 333 326 315 310 310 312 316 316 312 312 310 312 309 305 301 297 294 289 284 281 278 273 273 271 269 266 255 226 218 212 213 211 212 212 211 198 180 182 179 170 163 163 163 159 155 158 163 148 145 137 131 140 144 144 138 144 141 144 142 141 142 138 144 150 162 164 158 157 154 169 165 159 101 60 55 52 48
32 20 1 356 343 329 340 337 308 313 308 308 307 315 322 320 316 308 303 299 296 294 290 289 287 288 286 283 280 274 274 278 277 273 268 263 249 229 220 216 213 212 212 211 206 189 182 179 176 173 172 164 147 133 146 155 160 161 152 146 128 151 152 150 132 143 140 141 132 128 129 129 133 133 142 141 145 153 165 161 160 161 210 309 13 46 50
11 16 33 336 303 304 304 305 303 307 310 314 315 315 314 312 311 312 308 304 300 298 295 291 288 286 282 277 273 273 269 269 270 270 268 263 253 240 227 221 217 214 211 205 198 183 176 176 178 177 171 146 138 154 146 161 167 161 137 120 122 121 131 140 122 120 124 130 131 132 133 134 133 131 134 143 143 145 145 144 143 155 182 137 293 333 47
348 338 341 308 289 292 289 296 310 309 304 303 308 306 310 316 316 310 302 298 298 303 299 296 290 288 286 284 281 279 275 272 271 270 267 266 257 241 234 228 222 206 198 198 187 175 176 178 178 173 151 145 147 151 156 166 161 153 138 135 125 123 133 133 125 114 115 107 120 126 121 108 113 116 116 115 111 119 117 116 108 118 105 311 330 26 56
330 324 321 315 299 294 317 316 304 305 309 315 326 319 314 316 309 301 300 303 307 305 302 302 301 296 294 291 288 282 280 277 276 276 274 271 263 247 216 153 126 151 168 174 182 180 181 182 180 173 160 157 160 159 160 165 154 145 136 134 125 130 127 125 114 122 120 124 125 120 111 117 120 121 123 118 120 117 118 115 134 135 158 168 69 76 41
315 309 303 289 288 318 318 306 308 304 307 314 316 309 305 303 291 291 295 304 305 300 300 300 298 297 294 290 289 287 285 281 276 273 272 269 265 233 171 159 166 184 192 196 189 187 187 184 171 157 146 139 149 150 153 154 146 131 111 116 107 126 130 131 133 132 130 126 123 123 120 118 121 126 129 125 126 126 128 123 132 156 174 152 85 74 45
314 309 298 269 338 313 305 305 303 304 306 309 307 299 302 314 310 304 301 303 300 298 297 298 297 295 295 298 298 296 291 285 279 276 273 271 258 203 189 192 205 209 208 200 189 185 176 139 155 143 140 157 161 161 158 148 142 138 130 128 121 124 133 134 130 134 119 115 115 119 122 123 127 130 127 133 142 141 139 141 157 173 172 137 111 83 35
329 332 333 339 340 332 322 310 316 308 310 307 297 292 293 291 289 287 287 291 295 293 291 289 290 292 295 295 292 290 291 294 293 286 276 272 263 218 210 212 217 220 215 199 185 179 172 162 139 137 148 153 159 161 156 147 139 142 132 125 116 122 135 139 132 131 116 112 118 125 127 126 129 133 134 129 130 134 141 142 154 158 147 133 111 80 220
301 286 281 293 298 296 302 301 306 305 300 294 287 290 292 292 288 287 288 289 285 285 289 292 294 295 293 288 283 284 284 286 284 279 276 270 252 231 217 218 219 201 164 139 143 148 129 143 137 144 147 150 155 155 152 153 149 144 128 124 123 124 124 127 133 125 124 117 117 118 105 113 121 124 124 128 134 137 138 150 155 158 141 135 121 137 285
289 284 285 283 283 281 279 278 284 289 292 292 297 295 284 284 292 290 289 288 286 287 289 288 284 289 289 286 281 278 273 271 272 276 280 277 258 199 170 145 118 108 114 140 149 145 146 138 138 140 149 154 154 155 151 144 129 130 118 126 133 112 121 120 132 133 130 123 121 124 125 126 117 107 111 121 128 125 135 142 154 154 142 134 125 127 328
294 289 284 281 277 275 275 275 276 278 282 284 284 289 292 292 290 289 291 289 287 286 285 286 286 286 286 284 286 287 288 288 289 287 284 283 159 146 147 149 146 143 142 140 151 136 131 138 145 147 148 150 149 149 145 138 121 128 126 111 103 103 98 101 108 97 99 116 119 115 113 104 102 113 115 118 121 128 134 141 153 146 133 129 131 131 201
286 286 286 284 283 280 281 279 278 281 282 283 285 289 289 288 288 287 284 283 286 290 295 296 293 290 285 285 285 286 286 286 286 284 286 132 149 150 154 152 151 150 146 140 137 135 139 143 148 146 143 146 148 150 145 140 128 113 117 116 118 126 129 125 122 117 117 107 106 107 106 114 114 109 113 124 129 135 140 147 149 138 129 129 122 147 127
296 291 288 286 287 286 281 279 281 281 284 285 283 280 286 291 290 287 287 292 298 298 295 289 284 284 285 289 287 283 286 293 291 292 128 153 157 145 146 149 155 152 152 139 132 136 136 142 145 146 147 149 149 142 141 138 135 130 108 123 115 121 116 116 120 112 116 114 114 119 129 128 126 129 127 120 125 138 143 141 143 142 136 134 137 137 136
299 294 288 287 286 286 286 283 281 280 282 286 290 291 288 286 289 292 293 296 295 294 290 289 290 290 288 284 281 289 298 300 247 150 142 133 125 132 101 91 69 106 129 124 137 132 138 146 151 146 142 144 141 135 130 132 132 116 107 110 115 111 114 112 119 106 105 112 123 129 115 118 113 126 131 138 135 133 131 130 135 134 136 135 144 137 142
299 300 297 297 294 295 295 293 292 291 288 284 288 289 292 291 289 292 294 295 293 294 291 293 292 289 293 295 294 292 316 303 183 131 120 115 113 99 75 54 65 92 123 132 126 134 143 145 143 142 145 144 140 136 136 135 133 125 116 115 114 113 110 109 116 118 124 124 120 128 109 114 119 126 126 134 139 146 141 140 144 143 137 135 138 139 142
300 303 305 302 301 301 299 300 300 296 296 293 285 280 287 291 293 294 294 296 296 296 297 304 303 295 295 298 306 328 350 13 120 122 119 119 117 117 109 102 116 119 136 133 133 137 141 140 136 124 99 105 105 133 121 133 127 112 119 117 114 120 125 128 120 126 128 131 125 125 123 120 117 130 130 136 142 138 140 144 147 150 143 136 131 132 131
302 304 302 303 301 303 302 301 300 300 296 293 292 294 294 294 296 295 295 294 294 302 313 313 315 310 308 321 0 43 59 74 77 61 47 40 108 131 109 101 130 124 121 118 128 133 135 136 137 133 119 119 104 134 133 134 116 116 119 126 118 118 110 112 113 119 115 119 118 112 116 127 135 131 134 132 140 145 149 148 146 141 133 126 126 125 115
307 307 307 304 302 305 306 304 304 301 300 302 303 302 303 301 298 297 296 300 308 321 324 324 326 330 333 343 38 63 48 49 64 69 60 44 38 38 81 122 130 125 125 127 132 134 132 136 125 89 133 131 128 132 126 112 96 101 96 106 104 115 119 121 113 115 118 115 108 113 129 138 136 139 145 144 145 141 144 151 147 137 128 129 123 125 125
306 302 301 304 306 305 303 302 299 301 302 306 314 313 308 309 311 308 310 314 322 331 337 336 335 340 0 8 16 42 54 49 59 70 90 74 63 41 41 99 113 128 128 130 133 135 136 131 115 123 120 123 129 125 111 96 103 98 106 111 115 110 118 111 106 104 112 112 123 134 140 134 134 139 141 140 139 139 141 140 126 127 122 124 114 118 117
304 303 303 304 303 302 302 301 303 305 306 305 308 314 320 325 322 319 322 328 332 344 351 346 351 7 18 27 43 52 54 47 42 66 96 102 103 74 57 93 111 127 126 128 128 130 121 105 122 123 123 128 123 121 105 106 106 105 109 106 105 101 100 107 111 111 105 108 116 121 131 137 130 131 134 124 131 133 149 148 141 138 133 128 129 141 164
303 304 303 303 303 302 299 300 302 305 304 308 312 315 327 334 330 327 338 343 352 4 9 10 15 25 28 40 49 55 51 49 38 34 33 34 97 127 114 111 118 118 119 121 120 94 85 107 119 123 125 125 123 114 90 96 100 103 97 97 92 104 105 111 108 106 104 109 115 123 128 128 121 125 122 129 134 124 119 117 119 124 127 116 117 141 196
302 304 306 305 303 300 302 307 310 310 311 314 321 324 333 339 336 336 342 352 4 9 12 17 22 28 35 34 38 51 65 66 49 36 45 72 76 85 95 97 102 106 104 94 90 96 114 112 116 122 122 118 114 92 96 96 98 98 97 90 98 91 99 96 103 101 111 112 111 102 102 96 94 93 92 107 125 133 140 149 144 136 128 129 154 198 211
304 306 307 308 304 304 312 317 316 315 320 325 323 323 331 333 336 342 351 4 9 16 17 16 17 25 25 31 25 32 41 79 89 57 63 87 93 100 102 104 103 101 99 86 71 72 100 115 117 117 112 110 105 85 87 89 91 90 88 100 105 104 106 106 107 109 114 108 115 125 129 128 126 130 144 146 140 135 139 144 144 134 138 160 195 201 205
306 308 310 307 307 319 323 320 322 322 323 323 324 326 333 331 331 349 356 357 3 8 10 16 21 20 23 21 32 34 40 35 84 114 106 103 106 102 99 102 97 89 81 83 95 100 94 95 103 103 100 98 82 86 88 89 87 99 99 96 93 98 108 107 111 117 116 130 137 132 130 123 137 139 152 146 141 140 143 138 128 141 168 178 198 217 221
313 314 316 312 323 330 326 322 324 324 322 325 329 332 336 346 1 355 357 357 357 5 16 17 20 21 24 28 35 45 59 73 80 87 91 85 81 89 91 85 76 75 80 93 99 102 89 87 89 87 89 75 66 65 65 87 91 88 81 91 89 81 82 98 111 111 116 114 118 99 116 113 124 127 128 139 149 145 149 148 148 162 170 223 237 244 233
321 322 313 321 331 320 315 315 321 323 328 334 337 341 344 359 9 7 1 357 0 13 18 25 30 29 33 43 50 55 66 77 81 84 93 87 77 75 74 82 79 77 80 82 89 98 96 77 74 80 86 79 69 71 76 81 84 88 87 80 84 91 102 103 111 116 113 94 97 108 104 104 117 137 168 173 154 155 155 158 171 183 186 211 213 212 216
315 309 313 332 324 315 314 323 332 337 340 348 347 351 355 357 4 13 14 11 17 23 16 23 29 28 38 51 61 64 66 76 85 86 81 82 79 80 76 77 80 76 77 81 82 74 75 78 78 75 77 74 67 75 78 77 69 70 71 79 96 96 90 99 107 96 95 114 111 119 127 128 127 156 186 156 171 169 170 176 186 195 206 214 203 210 244